Regional Weather Roundup
Issued by NWS

Home | Current Version | Previous Version | Graphics & Text | Print | Product List | Glossary On
Versions: 1 2 3 4 5 6 7 8 9 10 11 12 13 14 15 16 17 18 19 20 21 22 23 24 25 26 27 28 29 30 31 32 33 34 35 36 37 38 39 40 41 42 43 44 45 46 47 48 49 50
000
ASUS43 KLOT 251808
RWRIL

ILLINOIS REGIONAL WEATHER ROUNDUP
NATIONAL WEATHER SERVICE CHICAGO/ROMEOVILLE IL
100 PM CDT MON MAY 25 2015

NOTE: "FAIR" INDICATES FEW OR NO CLOUDS BELOW 12,000 FEET WITH NO
SIGNIFICANT WEATHER AND/OR OBSTRUCTIONS TO VISIBILITY.

* THESE STATIONS ARE NOT UNDER NWS QUALITY CONTROL. THEY ALSO MAY NOT
  REPORT WEATHER SUCH AS PRECIPITATION OR FOG.

ILZ001-002-007-009-015-016-024-251900-
NORTHWEST ILLINOIS

CITY           SKY/WX    TMP DP  RH WIND       PRES   REMARKS
MOLINE         MOSUNNY   76  62  62 SW17G23   29.88S
6HR MIN TEMP:  66; 6HR MAX TEMP:  77; 6HR PCP: TRACE;

STERLING*      PTSUNNY   75  64  69 W13G22    29.89S
SAVANNA*       PTSUNNY   75  63  66 SW17      29.87R
$$

ILZ003-004-008-010-011-017-018-251900-
NORTH CENTRAL ILLINOIS

CITY           SKY/WX    TMP DP  RH WIND       PRES   REMARKS
ROCKFORD       PTSUNNY   74  62  66 SW16G26   29.89R
6HR MIN TEMP:  67; 6HR MAX TEMP:  75; 6HR PCP:  0.05;

FREEPORT*      MOSUNNY   73  64  73 SW16G24   29.88F
ROCHELLE*      PTSUNNY   73  65  75 SW23G30   29.90S
DE KALB*       PTSUNNY   70  62  75 SW20G25   29.91R
PERU*          PTSUNNY   76  64  65 W17       29.92F
$$

ILZ005-006-012>014-019>023-251900-
NORTHEAST ILLINOIS

CITY           SKY/WX    TMP DP  RH WIND       PRES   REMARKS
CHICAGO-OHARE  CLOUDY    71  64  78 SW15G21   29.89R
6HR MIN TEMP:  67; 6HR MAX TEMP:  73; 6HR PCP:  0.07;

CHICAGO-MIDWAY PTSUNNY   73  66  78 SW14G24   29.90R
6HR MIN TEMP:  68; 6HR MAX TEMP:  76; 6HR PCP:  0.06;

AURORA         CLOUDY    74  62  66 W23G31    29.91R
6HR MIN TEMP:  68; 6HR MAX TEMP:  74; 6HR PCP:  0.07;

LANSING*       CLOUDY    75  60  58 SW24G33   29.92R
JOLIET*        CLOUDY    73  65  75 SW10G17   29.93R
WAUKEGAN       PTSUNNY   74  61  63 SW10G26   29.85S
6HR MIN TEMP:  66; 6HR MAX TEMP:  74; 6HR PCP:  0.06;

DUPAGE AIRPORT LGT RAIN  69  64  84 SW14G26   29.90R
6HR MIN TEMP:  66; 6HR MAX TEMP:  73; 6HR PCP:  0.29;

KANKAKEE*      PTSUNNY   76  62  63 SW24G37   29.96R
WHEELING       PTSUNNY   72  64  76 SW13      29.90R
6HR MIN TEMP:  68; 6HR MAX TEMP:  73; 6HR PCP:  0.07;

MORRIS*        PTSUNNY   74  65  72 W17G24    29.91S
ROMEOVILLE*    CLOUDY    71  63  74 W21G29    29.92R
NORTHERLY ISL    N/A     71  62  73 SW12        N/A
$$

LMZ740>746-251900-
SOUTHERN LAKE MICHIGAN

STATION/POSITION SKY/WX   TEMP    WIND        PRES    VSBY  WAVE
                          AIR SEA DIR/SP/G                  HT/PER
                          (F)     (DEG/KT/KT) (MB)    (MI)  (FT/S)
SOUTHERN BUOY              48 38  200/ 14/ 16 1012.0R         2/ 4
HARRISON CRIB              69     210/ 21/ 26   N/A
BURNHAM HARBOR             71     260/  9/ 17   N/A
CALUMET HARBOR             72     210/ 16/ 22   N/A
BURNS HARBOR               74     210/ 19     1012.9R
MICHIGAN CITY              74     200/ 21/ 29   N/A
MICHIGAN CITY 6N           64 52  250/ 16/ 19   N/A           3/ 4
ST. JOSEPH                 58 54  260/  8/  8   N/A           2/ 4
$$

ILZ025>027-034>036-040-047-049-050-058-095>099-251900-
WEST-CENTRAL ILLINOIS

CITY           SKY/WX    TMP DP  RH WIND       PRES   REMARKS
QUINCY         MOSUNNY   75  63  66 SW15      29.94F
GALESBURG*     MOSUNNY   74  64  70 S17G23    29.92F
MACOMB*        MOSUNNY   74  63  68 S13G21    29.95F
JACKSONVILLE*  MOSUNNY   79  63  58 SW15      29.98F HX  80
PITTSFIELD*    MOSUNNY   76  62  61 S12       29.97F
$$

ILZ028>032-037-038-041>044-048-051>054-059>061-251900-
CENTRAL ILLINOIS

CITY           SKY/WX    TMP DP  RH WIND       PRES   REMARKS
PONTIAC        CLOUDY    75  65  71 SW18G26   29.96S
BLOOMINGTON    PTSUNNY   76  64  66 SW18G24   29.99S
DECATUR        PTSUNNY   77  62  59 SW15      30.00F
PEORIA         PTSUNNY   76  62  62 SW16      29.95F
6HR MIN TEMP:  68; 6HR MAX TEMP:  77; 6HR PCP:  0.01;

LACON*         MOSUNNY   74  62  64 SW13      29.92F
LINCOLN*       PTSUNNY   77  63  62 S9G17     29.96F
SPRINGFIELD    PTSUNNY   78  62  57 SW13      29.98F HX  80
6HR MIN TEMP:  69; 6HR MAX TEMP:  78; 6HR PCP: TRACE;

TAYLORVILLE    PTSUNNY   75  63  64 SW10G18   30.00F
$$

ILZ033-039-045-046-055>057-062-063-251900-
EAST-CENTRAL ILLINOIS

CITY           SKY/WX    TMP DP  RH WIND       PRES   REMARKS
CHAMPAIGN      PTSUNNY   81  58  45 SW21G31   30.00S HX  81
DANVILLE*      PTSUNNY   80  60  51 SW22G28   29.97S HX  81
RANTOUL*       MOSUNNY   80  61  53 SW20G28   29.99F HX  81
MATTOON        PTSUNNY   77  65  66 SW15G21   30.02F
PARIS*         PTSUNNY   79  64  58 S22G28    30.03S HX  81
$$

ILZ079-100>102-251900-
SOUTHWEST ILLINOIS

CITY           SKY/WX    TMP DP  RH WIND       PRES   REMARKS
ALTON          PTSUNNY   79  68  69 S14       30.00F HX  81
BELLEVILLE     PTSUNNY   81  67  62 S12       30.00S HX  83
CAHOKIA*       PTSUNNY   81  63  54 S9        30.00F HX  82
SPARTA*        CLOUDY    77  68  73 S9        30.04S
$$

ILZ064>066-069>071-074>076-080>082-084>086-088>090-092>094-251900-
SOUTH-CENTRAL ILLINOIS

CITY           SKY/WX    TMP DP  RH WIND       PRES   REMARKS
CARBONDALE     CLOUDY    76  68  76 S7        30.05F
6HR MIN TEMP:  69; 6HR MAX TEMP:  77;

CAIRO*         CLOUDY    74  68  82 S8        30.07S
EFFINGHAM*     PTSUNNY   78  61  55 S14       30.05S HX  80
MARION         CLOUDY    77  70  78 S12       30.07F
MT. VERNON     PTSUNNY   77  66  69 S13       30.07F
CENTRALIA*     PTSUNNY   80  65  59 S14G21    30.04S HX  82
SALEM*         PTSUNNY   79  68  68 S12       30.05S HX  81
METROPOLIS*    CLOUDY    75  70  85 S8        30.07F
$$

ILZ067-068-072-073-078-083-087-091-251900-
SOUTHEAST ILLINOIS

CITY           SKY/WX    TMP DP  RH WIND       PRES   REMARKS
LAWRENCEVILLE  PTSUNNY   78  65  63 SW20G26   30.08F HX  80
FLORA*         PTSUNNY   77  66  68 S15       30.06F
FAIRFIELD*     PTSUNNY   76  67  73 S12G17    30.06F
HARRISBURG*    CLOUDY    75  67  76 S9        30.09S
ROBINSON*      PTSUNNY   77  65  66 S17G24    30.08S
CARMI*         CLOUDY    75  63  64 S10       30.08S
$$

ABBREVIATIONS USED IN REMARKS
   TC - TEMPERATURE IN CELSIUS
  WCI - WIND CHILL INDEX
   HX - HEAT INDEX
  VSB - VISIBILITY
$$




USA.gov is the U.S. government's official web portal to all federal, state and local government web resources and services.